CAPE
8 4 3 1 1 3 4 4 3 2 2 2 1 2 2 0 0 0 0 0 0 0 0 0 0 0 0 0 0 229 59 235 163 208 273 447 320 771 741 261 134 593 892 1122 972
4 5 3 1 1 3 2 4 2 1 1 1 1 1 1 0 0 0 0 0 0 0 0 0 0 0 0 0 40 47 30 111 267 188 229 434 543 594 81 394 506 942 1175 922 827
4 5 4 2 1 2 2 3 2 2 1 1 0 1 1 0 0 0 1 1 0 0 0 0 0 0 0 24 186 37 45 196 451 196 275 279 293 841 84 417 620 875 961 801 719
4 3 4 4 5 3 3 2 2 1 1 0 0 0 0 0 0 0 0 0 0 0 0 0 0 0 0 32 138 225 286 150 242 130 397 11 25 562 140 775 1048 813 814 804 745
2 2 2 2 4 3 2 1 1 0 0 0 0 0 0 0 0 0 0 0 0 0 0 0 0 0 0 3 0 154 180 189 98 69 90 245 191 359 98 284 1107 930 795 825 846
6 2 2 1 3 2 1 2 1 0 0 0 0 0 0 0 0 0 0 0 0 0 0 0 0 0 0 5 0 1 143 176 59 40 50 90 159 155 0 7 1170 1105 973 809 801
6 7 2 4 3 2 2 3 1 0 0 0 0 0 0 0 0 0 0 0 0 0 0 0 0 0 0 8 0 0 1 10 42 38 61 164 105 49 81 730 1139 1192 1162 1119 1094
4 3 3 2 2 1 3 1 0 0 0 0 0 0 0 0 0 0 0 0 0 0 0 0 0 0 0 0 0 0 0 24 26 32 37 38 70 260 575 240 1222 1147 1180 1130 1164
6 3 3 1 2 2 0 0 0 0 0 0 0 0 0 0 0 0 0 0 0 0 0 0 0 0 0 0 0 0 3 66 129 50 57 245 144 210 372 1 727 1353 1300 1244 1504
5 5 3 2 2 0 0 0 0 0 0 0 0 0 0 0 0 0 0 0 0 0 0 0 0 0 0 1 0 3 20 10 102 153 53 0 2 328 254 315 203 1296 1452 1755 1790
3 2 0 0 0 0 0 0 0 0 0 0 0 0 0 0 0 0 0 0 0 0 0 0 0 0 0 2 0 2 92 75 28 59 9 0 0 7 28 268 361 1491 1773 1997 1846
4 3 1 0 0 0 0 0 0 0 0 0 0 0 0 0 0 0 0 0 0 0 0 0 0 0 0 2 2 13 15 25 15 5 0 0 0 0 7 44 107 185 2005 1997 1805
5 4 1 0 0 0 0 0 0 0 0 0 0 0 0 0 0 0 0 0 0 0 0 0 0 0 0 0 0 2 16 15 42 21 31 0 0 76 0 6 232 88 586 1726 2138
7 5 1 2 0 0 0 0 0 0 0 0 0 0 0 0 0 0 0 0 0 0 0 0 0 0 0 0 0 0 13 8 32 23 26 4 184 158 179 124 206 41 70 697 1840
3 3 2 0 0 0 0 0 0 0 0 0 0 0 0 0 0 0 0 0 0 0 0 0 0 0 0 0 0 0 7 19 12 34 0 0 13 57 105 269 87 142 242 437 1661
3 0 1 0 0 0 0 0 0 0 0 0 0 0 0 0 0 0 0 0 0 0 0 0 0 0 0 0 0 0 0 1 23 41 5 0 13 104 0 60 126 119 151 402 791
0 0 2 0 0 0 0 0 0 0 0 0 0 0 0 0 0 0 0 0 0 0 0 0 0 0 0 0 0 0 0 0 26 60 0 0 98 237 129 37 84 227 191 341 419
0 0 0 0 0 0 0 0 0 0 0 0 0 0 0 0 0 0 0 0 0 0 0 0 0 0 0 0 0 0 0 1 33 16 23 103 112 203 33 42 17 3 233 198 195
0 0 0 0 0 0 0 0 0 0 0 0 0 0 0 0 0 0 0 0 0 0 0 0 0 0 0 0 0 0 0 0 0 0 1 117 237 43 133 89 43 13 63 219 237
0 0 0 0 0 0 0 0 0 0 0 0 0 0 0 0 0 0 0 0 0 0 0 0 0 0 0 0 0 0 0 0 0 0 0 52 192 131 151 210 100 57 21 116 156
0 103 0 0 0 0 0 0 0 0 0 0 0 0 0 0 1 0 0 0 0 0 0 0 0 0 0 0 0 0 0 0 0 0 0 0 90 32 275 376 173 54 46 149 298
0 75 0 0 0 0 0 0 0 0 0 0 0 0 0 0 0 0 0 0 0 0 0 0 0 0 0 0 0 0 0 0 0 0 0 0 101 48 146 41 46 81 136 401 547
22 242 0 0 0 42 25 2 0 0 0 0 0 0 0 0 0 0 0 0 0 0 0 0 0 0 0 0 0 0 0 0 0 0 61 22 82 77 13 11 32 54 669 995 683
8 149 47 0 0 0 3 5 12 0 0 0 0 0 0 0 0 0 20 2 3 0 0 0 0 0 0 0 0 0 0 0 0 0 0 0 6 0 145 196 5 17 64 647 1064
0 184 57 192 113 32 5 6 2 0 4 0 0 0 0 0 0 0 0 24 146 289 119 0 0 0 0 0 0 0 0 0 0 0 0 0 0 133 396 34 87 17 29 173 595
0 0 0 0 0 0 0 0 0 0 4 0 57 8 7 0 0 2 43 226 405 239 153 91 49 0 0 0 0 0 0 0 0 0 0 0 0 178 8 229 139 18 26 0 108
0 0 0 0 0 0 0 0 0 2 0 4 10 75 377 44 16 87 190 434 520 213 12 22 154 293 31 0 0 0 0 0 0 1 0 0 0 70 0 81 406 770 734 497 435
CIN
0 0 0 0 0 0 0 0 0 0 0 0 0 0 0 0 0 0 0 0 0 0 0 0 0 0 0 0 0 -98 -304 -146 -61 -34 -41 -26 -6 -9 -139 -6 -15 -1 -12 -66 -27
0 0 0 0 0 0 0 0 0 0 0 0 0 0 0 0 0 0 0 0 0 0 0 0 0 0 0 0 -16 -221 -222 -310 -43 -27 -20 -4 -15 -153 -280 -108 -14 -31 -58 -72 -25
0 0 0 0 0 0 0 0 0 0 0 0 0 0 0 0 0 0 -139 -108 0 0 0 0 0 0 0 -23 -12 -415 -256 -207 -59 -10 -14 -78 -48 -26 -259 -100 -158 -41 -68 -73 -35
0 0 0 0 0 0 0 0 0 0 0 0 0 0 0 0 0 0 0 0 0 0 0 0 0 0 0 -29 -8 -1 -7 -12 -2 -10 -18 -294 -289 -50 -178 -4 -14 -46 -58 -77 -45
0 0 0 0 0 0 0 0 0 0 0 0 0 0 0 0 0 0 0 0 0 0 0 0 0 0 0 -2 0 -20 -24 -19 -45 -36 -26 -74 -219 -60 -408 -336 -22 -50 -67 -58 -56
0 0 0 0 0 0 0 0 0 0 0 0 0 0 0 0 0 0 0 0 0 0 0 0 0 0 0 -1 0 -8 -32 -18 -78 -88 -103 -66 -17 -48 0 -205 -24 -49 -66 -71 -57
0 0 0 0 0 0 0 0 0 0 0 0 0 0 0 0 0 0 0 0 0 0 0 0 0 0 0 -2 0 0 -16 -87 -134 -125 -95 -45 -28 -37 -358 -15 -13 -35 -57 -59 -53
0 0 0 0 0 0 0 0 0 0 0 0 0 0 0 0 0 0 0 0 0 0 0 0 0 0 0 0 0 0 0 -45 -107 -71 -78 -102 -83 -246 -150 -46 -4 -24 -39 -46 -48
0 0 0 0 0 0 0 0 0 0 0 0 0 0 0 0 0 0 0 0 0 0 0 0 0 0 0 0 0 0 -2 -40 -23 -80 -38 -1 -47 -182 -296 -17 -4 -15 -38 -49 -40
0 0 0 0 0 0 0 0 0 0 0 0 0 0 0 0 0 0 0 0 0 0 0 0 0 0 0 -1 0 -6 -4 -28 -4 -22 -23 0 -1 -39 -67 -19 -79 -8 -26 -47 -54
0 0 0 0 0 0 0 0 0 0 0 0 0 0 0 0 0 0 0 0 0 0 0 0 0 0 0 -2 0 -1 -2 -2 -7 -24 -3 0 0 -1 -4 -13 -14 -3 -7 -38 -67
0 0 0 0 0 0 0 0 0 0 0 0 0 0 0 0 0 0 0 0 0 0 0 0 0 0 0 0 -1 -2 -2 -1 -2 -3 0 0 0 0 -1 -2 -24 -3 -21 -24 -39
0 -1 0 0 0 0 0 0 0 0 0 0 0 0 0 0 0 0 0 0 0 0 0 0 0 0 0 0 0 0 -1 -4 -1 -5 -14 0 0 -3 0 -30 -13 -13 -8 -14 -24
0 0 0 0 0 0 0 0 0 0 0 0 0 0 0 0 0 0 0 0 0 0 0 0 0 0 0 0 0 0 0 -4 -2 -3 -3 0 -1 -5 -39 -19 -3 -9 -8 -2 -25
0 0 -1 0 0 0 0 0 0 0 0 0 0 0 0 0 0 0 0 0 0 0 0 0 0 0 0 0 0 0 0 -1 -8 0 0 0 -3 -9 -40 -18 -1 -1 -4 -6 -13
0 0 0 0 0 0 0 0 0 0 0 0 0 0 0 0 0 0 0 0 0 0 0 0 0 0 0 0 0 0 0 -2 -5 -2 0 0 -2 -69 0 -88 -1 -5 -30 -2 -5
0 0 0 0 0 0 0 0 0 0 0 0 0 0 0 0 0 0 0 0 0 0 0 0 0 0 0 0 0 0 0 0 0 -6 0 0 -4 -26 -90 -61 -2 -2 -16 -27 -10
0 0 0 0 0 0 0 0 0 0 0 0 0 0 0 0 0 0 0 0 0 0 0 0 0 0 0 0 0 0 0 0 -1 0 -15 -3 -3 -21 -83 -20 -31 -34 -2 -18 -9
0 0 0 0 0 0 0 0 0 0 0 0 0 0 0 0 0 0 0 0 0 0 0 0 0 0 0 0 0 0 0 0 0 0 -4 -18 -56 -105 -102 -5 -3 -25 -6 -2 -4
0 0 0 0 0 0 0 0 0 0 0 0 0 0 0 0 0 0 0 0 0 0 0 0 0 0 0 0 0 0 0 0 0 0 0 -11 -48 -158 -83 -2 -7 -2 -23 -3 -3
0 -109 0 0 0 0 0 0 0 0 0 0 0 0 0 0 0 0 0 0 0 0 0 0 0 0 0 0 0 0 0 0 0 0 0 0 -43 -16 -61 -7 -7 -21 -21 -3 -2
0 -66 0 0 0 0 0 0 0 0 0 0 0 0 0 0 0 0 0 0 0 0 0 0 0 0 0 0 0 0 0 0 0 0 0 0 -9 -11 -77 -14 -2 -5 -2 -10 -8
-31 -3 0 0 -6 -35 -6 -1 0 0 0 0 0 0 0 0 0 0 0 0 0 0 0 0 0 0 0 0 0 0 0 0 0 0 -1 -2 -2 -33 -91 -41 -8 -5 -7 -21 -17
-10 -1 -11 0 0 0 -12 0 0 0 0 0 0 0 0 0 0 0 -7 -1 -2 0 0 0 0 0 0 0 0 0 0 0 0 0 0 0 -5 0 -14 -11 -30 -36 -20 -10 -17
-11 -2 -16 -4 -1 -1 0 0 0 0 -1 0 0 0 0 0 0 0 0 -3 -23 -178 -34 0 0 0 0 0 0 0 0 0 0 0 0 0 0 -4 -86 -95 -10 -3 -12 -35 -6
0 0 0 0 0 0 0 0 0 0 0 0 -7 -6 0 0 0 -1 0 -2 -97 -68 -47 -82 -3 0 0 0 0 0 0 0 0 0 0 0 0 -66 -178 -72 -82 0 -8 -2 -50
0 0 0 0 0 0 0 0 0 -1 0 -1 -11 -22 -1 -10 -10 -20 -11 -5 -89 -138 -208 -398 -171 -114 0 0 0 0 0 0 0 0 0 0 0 -28 0 -31 -3 -13 -15 -30 -39
Wind_Speed
15 15 16 16 17 17 16 17 18 17 17 17 18 17 17 18 22 8 10 1 4 7 3 12 15 19 13 13 15 16 10 6 3 10 10 12 2 19 21 8 12 12 17 23 20
15 16 16 17 17 17 17 17 18 19 19 19 19 18 17 16 10 16 6 7 6 3 9 14 13 13 11 15 7 10 1 10 7 10 5 4 9 14 8 19 12 17 20 21 21
14 15 17 17 17 18 18 18 18 18 18 19 20 19 17 17 11 12 6 7 6 6 14 19 17 15 16 14 8 11 13 25 22 9 9 16 14 25 23 13 21 17 20 21 20
14 15 16 17 18 18 18 18 19 20 20 20 20 19 19 7 5 7 7 4 4 8 13 16 14 15 17 9 10 4 10 7 6 4 9 12 16 11 3 13 21 19 20 20 19
14 14 15 16 18 19 19 19 19 20 20 19 19 17 11 9 14 10 8 7 8 11 15 15 16 15 15 2 10 11 7 16 5 2 10 17 22 9 32 30 18 20 19 20 17
15 15 15 16 17 19 19 19 20 20 19 19 17 15 7 12 5 11 11 10 13 13 16 16 15 16 16 6 8 3 14 21 3 8 12 3 4 13 20 36 17 17 18 17 17
14 15 16 17 18 19 20 20 22 21 19 17 13 7 11 17 2 2 7 12 13 14 16 18 18 17 15 15 10 8 7 13 12 8 4 7 10 15 8 11 17 17 16 16 16
15 15 16 18 19 20 21 22 23 21 17 13 9 9 10 8 13 11 10 13 10 10 16 17 12 11 19 18 7 14 14 14 10 5 16 7 1 20 13 11 18 17 14 14 14
14 15 15 16 18 20 22 24 22 17 11 10 7 10 15 2 11 13 13 14 14 13 13 11 8 15 17 15 11 15 14 14 10 13 18 12 7 17 27 24 14 17 16 15 13
14 15 15 15 17 19 25 25 10 10 7 9 11 10 12 13 10 17 16 15 14 14 15 12 11 14 15 15 13 8 12 16 5 9 13 9 13 22 23 13 20 15 18 15 15
16 17 18 18 18 18 15 3 7 8 13 13 11 14 6 6 5 8 12 13 16 14 17 17 15 17 19 19 19 15 4 14 14 10 6 7 11 11 8 20 8 19 16 16 17
17 18 19 21 22 21 10 8 8 7 11 20 20 17 5 5 8 14 16 17 17 17 17 17 19 20 21 21 21 20 18 12 9 9 3 8 11 13 15 13 6 13 19 19 18
17 18 20 22 26 12 10 12 8 10 8 16 23 19 13 12 13 14 20 19 17 20 20 19 19 21 19 18 20 20 19 8 14 3 11 10 14 17 15 12 15 11 12 21 19
16 18 18 24 8 10 6 5 7 6 8 13 13 12 17 14 16 19 18 18 20 22 21 20 20 21 14 16 19 20 18 12 16 7 10 10 10 8 12 16 14 15 13 15 19
17 18 17 10 14 6 8 6 8 6 8 15 13 6 10 13 2 19 15 16 22 21 20 20 22 21 19 14 16 19 13 16 13 13 12 20 11 7 7 13 9 4 7 10 18
15 16 17 6 8 13 11 8 7 7 11 10 11 11 15 16 18 10 16 15 17 20 19 20 21 22 17 17 17 14 18 20 15 11 11 17 18 8 8 30 4 10 9 12 16
16 15 9 11 2 7 6 7 7 11 4 11 12 15 16 16 18 13 15 16 16 14 18 20 21 21 16 17 15 18 17 12 14 12 11 21 18 9 14 3 10 14 13 13 12
19 17 8 9 8 8 7 8 9 9 13 8 4 11 16 18 18 19 16 16 20 21 14 18 16 20 20 16 17 19 19 14 13 15 16 20 9 9 7 24 9 9 16 15 15
26 6 6 7 11 7 8 10 10 9 9 4 7 9 12 14 16 16 19 17 18 20 21 17 18 18 23 20 19 21 19 17 22 22 16 4 5 28 25 9 12 6 13 17 16
7 9 6 8 9 7 8 15 20 7 5 7 12 16 15 16 13 15 14 17 20 20 21 19 19 18 11 20 20 20 18 16 12 17 20 7 10 9 20 10 10 7 9 11 13
6 8 8 9 7 7 10 15 5 6 4 7 13 18 12 16 6 10 18 14 14 17 18 19 17 18 14 14 16 16 17 21 18 15 15 15 6 7 28 13 14 8 2 11 12
8 5 8 8 7 9 12 12 6 9 10 8 13 14 17 17 9 13 19 8 5 14 17 17 12 16 23 16 19 18 21 22 14 18 15 14 4 7 12 5 8 9 12 13 12
6 2 7 8 9 10 13 6 9 9 12 9 10 12 15 15 15 13 18 16 2 3 7 14 12 14 19 18 18 13 18 20 19 21 15 15 9 10 7 11 9 10 15 12 11
7 4 7 7 10 14 15 11 10 9 6 13 14 12 15 13 13 16 17 16 6 7 4 10 18 16 15 18 16 17 19 22 24 15 16 19 15 5 17 13 9 7 8 16 12
6 5 9 5 7 10 10 12 10 14 7 8 8 14 16 14 15 17 18 17 5 15 9 12 18 20 22 19 20 22 20 21 21 22 20 22 20 20 10 6 11 9 9 6 9
6 7 12 12 14 13 8 12 13 15 11 14 12 13 14 15 19 17 15 11 6 7 5 12 15 18 20 21 20 22 24 23 23 23 22 25 22 9 13 8 8 6 7 5 5
9 10 8 9 14 12 9 10 13 11 10 15 14 10 19 12 10 14 15 4 10 5 5 10 13 14 19 20 21 23 24 24 22 20 23 24 20 11 18 14 7 12 6 3 2
Wind_Direction
348 346 344 343 341 339 339 334 332 331 329 327 326 325 321 320 309 235 256 165 195 162 166 256 214 241 247 256 258 40 16 312 101 27 345 133 303 68 11 107 72 44 132 141 158
344 342 342 339 338 336 334 333 332 329 328 327 325 324 321 326 287 265 210 146 140 146 228 253 240 224 242 241 153 105 66 279 189 193 198 156 157 116 92 355 97 90 114 142 156
344 341 339 337 335 333 332 330 329 326 324 323 322 323 323 317 274 240 135 155 160 202 242 275 290 284 266 260 187 143 185 231 266 8 116 32 19 115 112 155 247 129 138 150 157
343 339 338 333 332 331 329 328 327 325 323 321 320 322 314 271 265 87 148 166 188 245 239 260 266 268 265 262 232 248 191 270 10 117 77 85 287 278 240 109 112 138 145 154 165
339 337 334 332 329 326 324 324 320 318 316 315 317 323 314 234 259 138 164 172 204 216 238 248 264 262 270 9 303 244 39 301 187 253 240 162 207 97 25 331 115 134 151 161 170
338 335 333 331 326 323 322 319 315 313 309 308 312 315 250 250 46 145 209 178 219 211 236 248 266 277 312 304 288 354 177 238 291 221 251 253 287 78 137 249 130 145 157 167 175
335 334 333 329 325 320 318 312 310 307 303 300 301 282 264 245 321 246 222 232 219 218 235 239 253 282 268 289 231 275 265 253 1 296 181 250 353 69 297 214 144 158 164 171 179
335 334 331 328 324 321 315 311 308 302 295 286 278 250 268 261 255 242 249 245 247 230 241 270 282 275 279 288 251 263 256 251 204 316 294 267 254 66 341 259 158 160 165 173 182
332 329 328 325 323 318 313 306 301 294 272 282 238 229 260 157 233 236 228 233 229 232 242 262 289 263 254 254 268 239 245 231 178 206 251 233 203 170 200 232 210 156 165 176 182
332 330 326 322 322 320 316 290 285 298 226 224 260 260 244 241 221 213 215 232 244 225 232 230 242 247 243 258 244 307 266 345 231 224 227 262 286 180 204 181 200 169 169 175 176
332 331 326 322 321 325 328 252 203 193 232 228 192 231 144 218 40 207 204 215 238 238 229 228 236 236 240 244 263 271 176 229 279 195 201 273 285 294 280 198 186 177 174 173 181
332 330 327 323 319 316 285 256 50 339 291 233 253 230 259 313 233 222 218 212 218 232 221 234 227 240 249 261 261 261 264 257 220 256 248 258 271 278 282 263 124 206 167 171 181
331 328 327 322 317 284 239 298 345 320 260 266 209 229 228 218 243 214 200 209 218 228 232 232 239 219 241 253 258 267 259 255 262 134 261 254 252 249 250 263 181 222 179 173 171
328 326 327 325 294 326 252 44 286 309 274 205 189 226 220 216 240 250 187 218 229 231 234 250 239 263 224 234 257 252 260 258 284 279 277 265 280 180 228 266 199 217 187 174 164
326 324 320 328 314 277 22 300 327 252 272 131 151 92 175 201 276 198 212 207 227 229 232 242 244 254 259 250 253 260 270 250 233 271 272 266 258 209 194 235 217 122 150 157 154
318 313 322 235 212 259 306 303 251 231 245 154 145 193 208 202 247 200 210 210 227 241 248 245 265 249 237 252 255 278 260 266 262 242 254 267 265 117 116 269 348 137 145 150 163
305 298 287 307 335 360 298 252 226 249 101 155 179 191 202 200 218 220 193 205 224 223 239 249 242 261 245 252 240 240 244 245 244 230 242 246 256 166 180 209 258 144 151 159 172
306 304 225 245 298 247 254 235 251 230 230 47 360 182 214 221 190 222 207 222 217 245 247 225 234 221 247 225 251 234 239 243 238 252 250 240 224 116 335 196 157 182 161 166 173
309 213 233 229 221 257 250 231 236 327 360 22 264 248 237 234 239 194 219 226 225 212 249 259 241 229 210 211 225 250 243 249 265 271 270 144 359 348 317 162 157 220 185 172 186
302 264 176 136 169 224 243 260 293 19 345 323 281 283 246 203 211 243 230 221 244 225 218 253 272 282 244 201 219 238 260 235 233 264 273 226 159 196 252 193 212 180 200 193 179
243 236 112 153 187 232 249 245 291 35 288 271 272 291 289 295 276 217 241 242 227 234 236 238 246 263 254 209 222 219 235 255 269 235 249 266 232 285 234 177 162 186 185 176 132
273 274 146 171 222 227 243 264 4 296 280 245 272 285 302 302 294 266 268 241 294 213 253 239 242 244 257 250 217 224 244 226 246 250 264 262 234 93 37 192 190 216 129 97 109
267 233 162 214 253 248 265 227 267 270 271 257 254 253 271 264 274 271 277 258 31 263 268 272 217 255 263 246 242 235 234 256 241 251 246 251 252 160 136 195 217 198 129 141 142
277 276 146 212 257 286 288 312 280 228 245 290 296 283 273 263 270 277 280 262 219 224 358 300 278 249 244 247 260 228 223 234 250 243 256 263 254 110 218 222 212 197 220 145 152
251 329 347 276 243 251 257 287 299 297 257 227 259 247 273 270 259 252 252 279 40 15 337 256 260 266 272 272 268 266 261 215 237 253 249 254 264 173 165 81 236 176 95 90 145
310 348 350 304 287 275 272 265 273 277 275 271 238 254 249 234 263 276 291 307 42 1 326 319 271 263 269 267 260 262 267 263 217 227 251 264 271 93 112 49 279 189 156 156 158
16 329 298 291 292 285 273 296 313 313 290 295 303 289 282 287 305 318 318 357 160 166 357 15 329 314 250 251 258 251 246 259 259 225 221 246 258 228 83 318 152 113 124 148 150